STARLINK-11223 [DTC] (60307 NORAD) Tracking and Keplerian Element Data

This shows tracking and keplerian element data for the satellite.

Feedback or suggestion? Click here.




ElementValue
Catalog60307
NameSTARLINK-11223 [DTC]
Epoch Orbit1318
Epoch Day286.84905681
Epoch Year2024
RAAN154.5666
Inclination53.1555
Eccentricity0.0001047
Argument of Perigee109.6152
Mean Anonmoly250.4981
Mean Motion15.74998563
Decay Rate0.00012949
L11 60307U 24133G 24286.84905681 .00012949 00000+0 89427-4 0 9990
L22 60307 53.1555 154.5666 0001047 109.6152 250.4981 15.74998563 13180



Live tracking and technical data element details for STARLINK-11223 [DTC] (NORAD 60307). STARLINK-11223 [DTC] can be tracked NOW for your location showing map with azimuth and elevation plus other details from your city location.







IsCatalogInMostPopularTable: catalog: 60307, numindb: 8
Update: records affected: 1



GetName: 60307 STARLINK-11223 [DTC]

Hit Count: updated at: Tue, 03 Dec 2024 02:05:58 GMT